Flag for Indonesia Weather past 2 weeks in Padang, West Sumatra, Indonesia

73 °F


Feels Like: 68 °F
Forecast: 79 / 87 °F
Wind: No wind

Location: Pakanbaru / Simpangtiga

Current Time: Nov 27, 2015 at 6:19:37 AM

Latest Report: Nov 27, 2015 at 5:00 AM

Visibility: 3 mi

Pressure: 29.74 "Hg

Humidity: 100%

Dew point: 73 °F

Location of PadangLocation

Historic Weather in Padang — Graph


Padang temperature yesterday

Maximum temperature yesterday: 86 °F (at 12:30 PM)
Minimum temperature yesterday: 75 °F (at 4:00 AM)
Average temperature yesterday: 80 °F

Past Weeks' High & Low Weather Summary

High91 °F (Nov 12, 2:00 PM)100% (Nov 12, 7:00 AM)29.89 "Hg (Nov 12, 7:00 AM)
Low73 °F (Nov 15, 3:00 AM)59% (Nov 12, 2:00 PM)29.62 "Hg (Nov 21, 3:30 PM)
Average81 °F83%29.77 "Hg
* Reported Nov 12 4:00 AM — Nov 27 4:30 AM, Padang, Weather by CustomWeather, © 2015

Note: Actual official high and low records may vary slightly from our data, if they occured in-between our weather recording intervals... More about our weather records


Padang weather history for previous 24 hours

Time TempWeatherWind HumidityBarometerVisibility
4:30 AM
Fri, Nov 27
75 °FPassing clouds.No wind94%29.74 "Hg5 mi
1:00 AM75 °FPassing clouds.No wind94%29.80 "Hg4 mi
12:00 AM75 °FPassing clouds.No wind94%29.80 "Hg3 mi
11:30 PM
Thu, Nov 26
75 °FLight rain. Passing clouds.No wind94%29.80 "Hg3 mi
11:00 PM75 °FLight rain. Passing clouds.No wind94%29.80 "Hg3 mi
10:30 PM75 °FLight rain. Passing clouds.7 mph100%29.80 "Hg2 mi
10:00 PM75 °FLight rain. Passing clouds.9 mph100%29.83 "Hg2 mi
9:30 PM77 °FThunderstorms. Passing clouds.10 mph94%29.83 "Hg3 mi
7:00 PM79 °FPassing clouds.No wind89%29.74 "Hg4 mi
6:30 PM79 °FPassing clouds.No wind89%29.74 "Hg4 mi
6:00 PM79 °FScattered clouds.No wind89%29.74 "Hg4 mi
5:30 PM79 °FPassing clouds.No wind84%29.71 "Hg4 mi
5:00 PM79 °FPassing clouds.6 mph84%29.71 "Hg4 mi
4:30 PM86 °FThunderstorms. Scattered clouds.10 mph70%29.68 "Hg4 mi
4:00 PM86 °FScattered clouds.No wind70%29.68 "Hg5 mi
3:30 PM86 °FScattered clouds.No wind70%29.68 "HgN/A
3:00 PM86 °FScattered clouds.No wind70%29.68 "HgN/A
2:30 PM86 °FScattered clouds.No wind70%29.68 "HgN/A
2:00 PM86 °FScattered clouds.No wind70%29.71 "HgN/A
1:00 PM86 °FPartly sunny.No wind70%29.77 "HgN/A
12:30 PM86 °FScattered clouds.No wind70%29.77 "HgN/A
12:00 PM84 °FScattered clouds.No wind74%29.80 "HgN/A
11:30 AM82 °FPassing clouds.No wind79%29.80 "HgN/A
10:30 AM81 °FScattered clouds.No wind84%29.83 "HgN/A
9:30 AM79 °FScattered clouds.No wind89%29.83 "HgN/A
9:00 AM77 °FScattered clouds.No wind94%29.83 "Hg6 mi
8:00 AM77 °FPassing clouds.No wind94%29.80 "HgN/A
7:00 AM75 °FPassing clouds.No wind94%29.77 "HgN/A
6:30 AM75 °FPassing clouds.No wind94%29.77 "Hg5 mi
6:00 AM75 °FPassing clouds.No wind94%29.74 "Hg5 mi
Weather by CustomWeather, © 2015

See weather overviewHow to use our weather pages